ROMMA est une association bénévole à but non lucratif. Votre soutien est indispensable : ADHERER à ROMMA ou FAIRE un DON

Val-d'Arly - (73, Savoie)

Beaufortain (2050 m)   Longitude: 06° 35' 21" E   Latitude: 45° 46' 53" N Station romma n°118
 

Détail journalier du     <<     >>

Température Humidité Vent Dir Rafale Dir. rafale Ensol.
Heure (°C) (%) (km/h) (km/h) (min)
01:00 0.27132---52---0
02:00 -0.17328---40---0
03:00 -0.87915---23---0
04:00 -2.39115---23---0
05:00 -0.78015---31---0
06:00 0.17128---43---0
07:00 0.27233---47---0
08:00 0.26932---47---0
09:00 0.86636---47---20
10:00 1.26139---58---40
11:00 1.26048---71---40
12:00 1.45749---87---60
13:00 1.55664---95---40
14:00 1.65764---109---30
15:00 1.85762---95---30
16:00 2.05764---132---40
17:00 2.05763---101---20
18:00 1.95874---126---0
19:00 1.86271---108---0
20:00 2.16276---121---0
21:00 2.85978---118---0
22:00 2.75979---148---0
23:00 2.85985---130---0
minuit 2.76098---156---0

Graphique du 22-11-2019

 

Serveur OMMA